Weather History for Indianapolis, IN

Change the Weather History Date:

Tuesday, February 5, 2013

  Actual Average Record
Temperature  
Mean Temperature 29 °F 30 °F  
Max Temperature 36 °F 37 °F 66 °F (1927)
Min Temperature 22 °F 22 °F -16 °F (1979)
Degree Days  
Heating Degree Days 36 35  
Month to date heating degree days 218 179  
Since 1 July heating degree days 3282 3400  
Cooling Degree Days 0 0  
Month to date cooling degree days 0 0  
Year to date cooling degree days 0 0  
Moisture  
Dew Point 25 °F    
Average Humidity 80    
Maximum Humidity 89    
Minimum Humidity 70    
Precipitation  
Precipitation 0.00 in 0.09 in 1.83 in (2008)
Month to date precipitation 0.08 0.42  
Year to date precipitation 5.59 3.08  
Snow  
Snow 0.00 in 0.30 in 5.30 in (2010)
Month to date snowfall 1.5 1.4  
Since 1 July snowfall 18.9 18.0  
Snow Depth 1.00 in    
Sea Level Pressure  
Sea Level Pressure 29.92 in    
Wind  
Wind Speed 8 mph (West)    
Max Wind Speed 18 mph    
Max Gust Speed 24 mph    
Visibility 7 miles    
Events      
T = Trace of Precipitation, MM = Missing Value Source: NWS Daily Summary

Daily Weather History Graph

Daily Weather History Graph

Search for Another Location

Airport:

Trip Planner

Search our weather history database for the weather conditions in past years. The results will help you decide how hot, cold, wet, or windy it might be!

Date:

Astronomy

Feb. 05, 2013 Rise Set
Actual Time 7:48 AM EST 6:10 PM EST
Civil Twilight 7:20 AM EST 6:38 PM EST
Nautical Twilight 6:48 AM EST 7:10 PM EST
Astronomical Twilight 6:17 AM EST 7:41 PM EST
Moon 3:29 AM EST (2/5) 1:27 PM EST (2/5)
Length of Visible Light 11h 17m
Length of Day
10h 21m
Waning Crescent, 27% of the Moon is Illuminated
Feb 5
Waning Crescent
Feb 10
New
Feb 17
First Quarter
Feb 25
Full
Mar 4
Last Quarter

Hourly Weather History & Observations

Time (EST) Temp. Windchill Dew Point Humidity Pressure Visibility Wind Dir Wind Speed Gust Speed Precip Events Conditions
12:54 AM 28.9 °F 21.9 °F 24.1 °F 82% 29.91 in 9.0 mi North 6.9 mph - N/A   Overcast
1:54 AM 28.9 °F 22.8 °F 23.0 °F 78% 29.91 in 7.0 mi North 5.8 mph - N/A   Overcast
2:54 AM 27.0 °F 18.0 °F 21.9 °F 81% 29.92 in 8.0 mi NNW 9.2 mph - N/A   Overcast
3:54 AM 26.1 °F 20.5 °F 21.9 °F 84% 29.92 in 6.0 mi NNW 4.6 mph - N/A   Overcast
4:20 AM 26.6 °F 20.0 °F 21.2 °F 80% 29.89 in 6.0 mi NNW 5.8 mph - N/A   Mostly Cloudy
4:43 AM 24.8 °F 17.9 °F 21.2 °F 86% 29.89 in 6.0 mi North 5.8 mph - N/A   Overcast
4:54 AM 26.1 °F - 21.9 °F 84% 29.91 in 6.0 mi Calm Calm - N/A   Overcast
5:54 AM 25.0 °F - 21.0 °F 85% 29.92 in 7.0 mi Calm Calm - N/A   Overcast
6:03 AM 24.8 °F - 21.2 °F 86% 29.90 in 7.0 mi Calm Calm - N/A   Overcast
6:54 AM 23.0 °F 17.0 °F 19.4 °F 86% 29.91 in 6.0 mi WNW 4.6 mph - N/A   Scattered Clouds
7:54 AM 24.1 °F 19.7 °F 21.0 °F 88% 29.95 in 4.0 mi WNW 3.5 mph - N/A   Mostly Cloudy
8:54 AM 24.8 °F - 21.2 °F 86% 29.92 in 4.0 mi Calm Calm - N/A   Mostly Cloudy
9:54 AM 27.0 °F - 23.0 °F 85% 29.96 in 5.0 mi Calm Calm - N/A   Overcast
10:54 AM 28.0 °F 20.8 °F 24.1 °F 85% 29.95 in 5.0 mi SSE 6.9 mph - N/A   Overcast
11:54 AM 30.0 °F 21.7 °F 25.0 °F 82% 29.94 in 7.0 mi South 9.2 mph - N/A   Overcast
12:54 PM 30.9 °F 23.5 °F 25.0 °F 79% 29.91 in 7.0 mi South 8.1 mph - N/A   Overcast
1:54 PM 32.0 °F 23.0 °F 26.1 °F 79% 29.88 in 8.0 mi SSW 11.5 mph - N/A   Overcast
2:54 PM 34.0 °F 24.6 °F 28.0 °F 79% 29.85 in 8.0 mi SSW 13.8 mph - N/A   Mostly Cloudy
3:54 PM 36.0 °F 28.0 °F 27.0 °F 70% 29.86 in 10.0 mi SW 11.5 mph - N/A   Mostly Cloudy
4:54 PM 35.1 °F 25.9 °F 28.0 °F 76% 29.87 in 9.0 mi WSW 13.8 mph - N/A   Mostly Cloudy
5:46 PM 35.6 °F 27.1 °F 28.4 °F 75% 29.88 in 10.0 mi West 12.7 mph - N/A   Mostly Cloudy
5:54 PM 35.1 °F 26.9 °F 28.9 °F 78% 29.91 in 10.0 mi West 11.5 mph - N/A   Overcast
6:54 PM 35.1 °F 29.3 °F 28.9 °F 78% 29.93 in 10.0 mi WSW 6.9 mph - N/A   Overcast
7:26 PM 33.8 °F 28.6 °F 30.2 °F 87% 29.91 in 9.0 mi WSW 5.8 mph - N/A   Overcast
7:54 PM 35.1 °F 30.1 °F 30.0 °F 82% 29.95 in 9.0 mi WSW 5.8 mph - N/A   Overcast
8:54 PM 34.0 °F 28.8 °F 30.0 °F 85% 29.97 in 7.0 mi West 5.8 mph - N/A   Overcast
9:54 PM 36.0 °F 27.5 °F 30.9 °F 82% 30.00 in 7.0 mi NW 12.7 mph - N/A   Overcast
10:54 PM 35.1 °F 24.8 °F 30.0 °F 82% 30.03 in 7.0 mi NW 17.3 mph 23.0 mph N/A   Overcast
11:54 PM 33.1 °F 22.6 °F 28.9 °F 85% 30.05 in 7.0 mi NW 16.1 mph 20.7 mph N/A   Overcast